Location: Sternwarte_Laufen
(47.9344°N, 12.9346°E)
Time: 09:29:13
(UTC+02:00)

Amateur Radio Satellites - All Passes

Search period start: 26 May 2017 08:59
Search period end: 27 May 2017 08:59
Location: Sternwarte_Laufen, 47.9344°N, 12.9346°E

Satellite Date Start Highest point End Downlink Frequencies (MHz)
Time Altitude Azimuth
XW-2A 26 May 08:59:48 09:03:15 64° 284° (WNW) 09:06:39 145.665 - 145.685
CUBEBUG 2 26 May 09:02:39 09:07:12 66° 101° (ESE) 09:11:50 437.445
PRISM 26 May 09:03:46 09:07:03 23° 64° (ENE) 09:10:19 437.425
M-CUBED/EXP-1 PRIME 26 May 09:12:15 09:15:52 27° 258° (WSW) 09:19:17 437.505
UWE-3 26 May 09:14:44 09:19:14 55° 100° (E) 09:23:47 435.000/436.395/437.385
SEEDS 26 May 09:24:30 09:28:40 57° 287° (WNW) 09:32:47 437.485
HO-68 26 May 09:42:03 09:49:04 56° 295° (WNW) 09:56:02 435.675
TIGRISAT 26 May 09:45:26 09:49:27 42° 69° (ENE) 09:53:35 435.000
Oscar 11 26 May 09:50:47 09:55:04 54° 100° (E) 09:59:20 .
YUBILEINY 26 May 10:03:08 10:05:15 11° 42° (NE) 10:07:22 435.215
CUTE 1.7 + AOD 2 26 May 10:10:36 10:13:11 16° 299° (WNW) 10:15:45 437.475
AO-73 26 May 10:16:22 10:20:54 69° 286° (WNW) 10:25:26 145.935
UNISAT 6 26 May 10:16:38 10:20:56 88° 265° (W) 10:25:19 437.425
QB50P2 26 May 10:20:55 10:21:29 10° 56° (NE) 10:22:03 145.880/145.840
NO-84 26 May 10:22:27 10:26:49 86° 142° (SE) 10:31:00 435.350 FM
AAUSAT CUBESAT 2 26 May 10:26:59 10:30:30 27° 294° (WNW) 10:33:58 437.432
ZACube-1 26 May 10:30:03 10:34:24 47° 289° (WNW) 10:38:47 437.345
FO-29 26 May 10:33:12 10:38:21 69° 258° (WSW) 10:43:44 435.910
PRISM 26 May 10:38:16 10:42:08 38° 262° (W) 10:46:01 437.425
CUBEBUG 2 26 May 10:40:23 10:43:22 18° 299° (WNW) 10:46:24 437.445
DELFI C3 26 May 10:51:57 10:55:55 70° 102° (ESE) 10:59:48 145.870
UWE-3 26 May 10:52:00 10:55:19 20° 298° (WNW) 10:58:42 435.000/436.395/437.385
EO-79 26 May 10:55:29 10:58:32 20° 63° (ENE) 11:01:37 145.935-145.965
AIST 2D 26 May 10:55:32 10:58:37 29° 69° (ENE) 11:01:44 435.315
RS-15 26 May 11:04:20 11:16:44 76° 48° (NE) 11:28:30 29.354- 29.394
EO-88 26 May 11:05:58 11:09:40 75° 102° (ESE) 11:13:20 145.990 - 145.960
TIGRISAT 26 May 11:23:02 11:26:21 22° 268° (W) 11:29:43 435.000
Oscar 11 26 May 11:27:46 11:30:50 19° 298° (WNW) 11:33:54 .
HO-68 26 May 11:31:37 11:35:19 15° 317° (NW) 11:39:00 435.675
ESTCUBE 1 26 May 11:36:12 11:39:04 16° 90° (E) 11:41:55 437.505/2401.250
NANOSAT C BR1 26 May 11:40:00 11:44:01 48° 70° (ENE) 11:48:04 145.865
POLYITAN 1 26 May 11:43:46 11:47:53 58° 72° (ENE) 11:52:03 437.675
DUCHIFAT 1 26 May 11:51:01 11:55:05 57° 72° (ENE) 11:59:12 145.980
LO-87 26 May 11:51:38 11:54:55 34° 97° (E) 11:58:11 145.935 - 145.965
QB50P2 26 May 11:52:19 11:56:31 78° 75° (ENE) 12:00:45 145.880/145.840
AO-73 26 May 11:55:33 11:56:17 10° 305° (NW) 11:57:01 145.935
YUBILEINY 26 May 11:56:44 12:05:06 44° 69° (ENE) 12:13:25 435.215
NO-84 26 May 12:00:50 12:04:46 35° 346° (NNW) 12:08:30 435.350 FM
Gurwin Techsat 1B 26 May 12:02:12 12:02:39 10° 49° (NE) 12:03:07 435.225
BUGSAT 1 26 May 12:12:26 12:15:58 31° 67° (ENE) 12:19:33 437.445
BEESAT 3 26 May 12:13:05 12:14:33 12° 23° (NNE) 12:16:00 437.485
AO-85 26 May 12:19:49 12:22:58 22° 37° (NE) 12:26:11 145.980
Oscar 19 26 May 12:25:32 12:29:33 23° 60° (ENE) 12:33:35 437.125/150
DELFI C3 26 May 12:28:20 12:30:09 13° 300° (WNW) 12:31:57 145.870
AIST 2D 26 May 12:29:09 12:31:52 21° 267° (W) 12:34:37 435.315
EO-79 26 May 12:29:58 12:34:00 46° 261° (W) 12:38:05 145.935-145.965
SPROUT 26 May 12:33:59 12:36:48 17° 91° (E) 12:39:36 437.525
VELOX 1 26 May 12:34:52 12:37:45 17° 91° (E) 12:40:37 145.980
EO-88 26 May 12:41:43 12:42:48 11° 300° (WNW) 12:43:52 145.990 - 145.960
AO-7 26 May 12:46:45 12:50:53 15° 35° (NE) 12:55:02 .
O/OREOS (USA 219) 26 May 13:06:26 13:10:16 26° 52° (NE) 13:14:03 437.305
50 SAT 26 May 13:10:46 13:13:08 17° 93° (E) 13:15:29 437.505
ESTCUBE 1 26 May 13:11:49 13:16:18 61° 288° (WNW) 13:20:43 437.505/2401.250
DX 1 26 May 13:12:43 13:15:15 15° 90° (E) 13:17:47 434.975-435.025
NANOSAT C BR1 26 May 13:17:07 13:20:00 18° 269° (W) 13:22:54 145.865
RS-15 26 May 13:17:36 13:28:18 39° 253° (WSW) 13:38:35 29.354- 29.394
POLYITAN 1 26 May 13:21:35 13:24:04 15° 270° (W) 13:26:33 437.675
LO-87 26 May 13:25:36 13:28:09 19° 295° (WNW) 13:30:43 145.935 - 145.965
BEESAT 2 26 May 13:28:14 13:30:59 17° 31° (NNE) 13:33:43 435.950
DUCHIFAT 1 26 May 13:28:38 13:31:07 15° 270° (W) 13:33:38 145.980
QB50P2 26 May 13:31:25 13:32:52 11° 272° (W) 13:34:18 145.880/145.840
Gurwin Techsat 1B 26 May 13:36:19 13:41:27 54° 70° (ENE) 13:46:39 435.225
NO-84 26 May 13:39:28 13:43:08 30° 7° (N) 13:46:32 435.350 FM
BUGSAT 1 26 May 13:48:01 13:51:22 25° 265° (W) 13:54:45 437.445
BEESAT 3 26 May 13:49:19 13:53:11 41° 45° (NE) 13:56:59 437.485
YUBILEINY 26 May 13:53:40 14:02:03 50° 271° (W) 14:10:26 435.215
AO-85 26 May 13:59:42 14:03:40 61° 235° (SW) 14:07:48 145.980
Oscar 19 26 May 14:03:21 14:08:29 59° 259° (WSW) 14:13:39 437.125/150
SPROUT 26 May 14:08:50 14:13:01 54° 288° (WNW) 14:17:11 437.525
VELOX 1 26 May 14:10:15 14:14:33 56° 289° (WNW) 14:18:50 145.980
AO-7 26 May 14:33:54 14:41:40 47° 59° (ENE) 14:49:29 .
UKube-1 26 May 14:40:55 14:45:15 81° 106° (ESE) 14:49:32 .
50 SAT 26 May 14:43:01 14:46:06 32° 291° (WNW) 14:49:10 437.505
O/OREOS (USA 219) 26 May 14:45:33 14:49:51 44° 251° (WSW) 14:54:07 437.305
DX 1 26 May 14:47:34 14:51:51 62° 289° (WNW) 14:56:07 434.975-435.025
ITAMSAT 1 26 May 15:03:48 15:08:47 51° 69° (ENE) 15:13:48 435.822/435.867
ITUPSAT 1 26 May 15:05:07 15:08:03 16° 89° (E) 15:10:58 437.325
BEESAT 2 26 May 15:05:16 15:09:22 84° 52° (NE) 15:13:25 435.950
NO-84 26 May 15:17:18 15:21:14 67° 28° (NNE) 15:24:48 435.350 FM
Gurwin Techsat 1B 26 May 15:17:29 15:21:44 24° 268° (W) 15:26:00 435.225
MOZHAYETS 4 26 May 15:25:47 15:28:28 15° 89° (E) 15:31:06
BEESAT 3 26 May 15:27:15 15:30:35 25° 244° (WSW) 15:33:53 437.485
BEESAT 26 May 15:38:02 15:42:20 32° 96° (E) 15:46:36 436.000
UKube-1 26 May 16:18:32 16:20:41 14° 302° (WNW) 16:22:48 .
AO-7 26 May 16:26:30 16:34:26 49° 259° (W) 16:42:27 .
ITUPSAT 1 26 May 16:41:34 16:46:23 71° 288° (WNW) 16:51:10 437.325
ITAMSAT 1 26 May 16:44:22 16:48:32 24° 267° (W) 16:52:44 435.822/435.867
BEESAT 2 26 May 16:44:50 16:46:31 12° 250° (WSW) 16:48:10 435.950
HO-68 26 May 16:47:31 16:47:37 10° 36° (NE) 16:47:44 435.675
NO-84 26 May 16:55:31 16:58:26 22° 229° (SW) 17:01:10 435.350 FM
CUTE-I 26 May 16:57:41 17:01:08 18° 56° (NE) 17:04:35 437.470
MOZHAYETS 4 26 May 17:01:28 17:06:07 71° 287° (WNW) 17:10:44
XW-2D 26 May 17:06:01 17:08:01 14° 61° (ENE) 17:10:03 145.860 - 145.880
XW-2B 26 May 17:13:32 17:15:54 16° 62° (ENE) 17:18:18 145.730 - 145.750
BEESAT 26 May 17:15:47 17:20:07 35° 294° (WNW) 17:24:27 436.000
DOVE 4 26 May 17:24:55 17:29:11 40° 70° (ENE) 17:33:15 437.250
XW-2F 26 May 17:25:52 17:28:43 20° 65° (ENE) 17:31:35 145.980 - 146.000
XW-2C 26 May 17:26:29 17:29:26 21° 65° (ENE) 17:32:24 145.795 - 145.815
NUDT-PHONESAT 26 May 17:26:36 17:29:02 17° 63° (ENE) 17:31:30 437.300
KAITUO 1B 26 May 17:34:06 17:36:56 21° 65° (ENE) 17:39:49 145.475/437.950
CUBESAT XI-V 26 May 17:46:16 17:50:56 67° 102° (ESE) 17:55:32 437.345
KKS-1 26 May 17:57:31 18:01:58 70° 103° (ESE) 18:06:23 437.445
LilacSat-2 26 May 18:03:12 18:06:57 55° 73° (ENE) 18:10:46 437.200
ITUPSAT 1 26 May 18:21:44 18:23:21 12° 307° (NW) 18:24:57 437.325
HO-68 26 May 18:26:55 18:33:22 38° 59° (ENE) 18:39:51 435.675
STARS 26 May 18:29:29 18:33:52 67° 103° (ESE) 18:38:14 437.465
CUBEBUG 2 26 May 18:31:42 18:32:23 10° 56° (NE) 18:33:04 437.445
CUTE-I 26 May 18:35:13 18:40:32 83° 255° (WSW) 18:45:53 437.470
XW-2D 26 May 18:37:59 18:41:45 61° 259° (W) 18:45:35 145.860 - 145.880
MOZHAYETS 4 26 May 18:41:13 18:42:25 11° 306° (NW) 18:43:37
SEEDS 26 May 18:44:57 18:47:52 18° 62° (ENE) 18:50:46 437.485
XW-2B 26 May 18:46:00 18:49:43 51° 260° (W) 18:53:29 145.730 - 145.750
NUDT-PHONESAT 26 May 18:59:03 19:02:38 44° 262° (W) 19:06:15 437.300
XW-2F 26 May 18:59:04 19:02:38 37° 263° (W) 19:06:13 145.980 - 146.000
XW-2C 26 May 18:59:55 19:03:26 35° 263° (W) 19:07:00 145.795 - 145.815
DOVE 4 26 May 19:03:20 19:07:01 24° 266° (W) 19:10:34 437.250
KAITUO 1B 26 May 19:07:14 19:10:45 36° 263° (W) 19:14:17 145.475/437.950
PCSat 26 May 19:15:12 19:19:48 29° 111° (ESE) 19:24:26 145.827
CUBESAT XI-V 26 May 19:24:44 19:27:49 18° 300° (WNW) 19:30:53 437.345
CUTE 1.7 + AOD 2 26 May 19:29:02 19:33:18 70° 74° (ENE) 19:37:35 437.475
XW-2A 26 May 19:34:00 19:37:21 69° 75° (ENE) 19:40:44 145.665 - 145.685
KKS-1 26 May 19:35:20 19:38:00 16° 301° (WNW) 19:40:41 437.445
LilacSat-2 26 May 19:39:33 19:41:35 14° 271° (W) 19:43:38 437.200
AO-73 26 May 19:40:33 19:43:22 17° 61° (ENE) 19:46:12 145.935
AAUSAT CUBESAT 2 26 May 19:44:30 19:48:16 33° 68° (ENE) 19:52:02 437.432
ZACube-1 26 May 19:53:35 19:57:02 24° 64° (ENE) 20:00:32 437.345
CUBEBUG 2 26 May 20:04:04 20:08:14 80° 73° (ENE) 20:12:30 437.445
STARS 26 May 20:07:00 20:09:44 16° 301° (WNW) 20:12:27 437.465
HO-68 26 May 20:13:54 20:20:53 53° 259° (W) 20:27:56 435.675
UWE-3 26 May 20:14:56 20:19:05 64° 73° (ENE) 20:23:22 435.000/436.395/437.385
SEEDS 26 May 20:18:59 20:23:10 54° 260° (W) 20:27:22 437.485
CUTE-I 26 May 20:19:13 20:21:24 12° 274° (W) 20:23:36 437.470
STRAND 1 26 May 20:38:55 20:44:04 70° 103° (ESE) 20:49:12 437.568
Oscar 11 26 May 20:48:28 20:52:45 62° 73° (ENE) 20:57:05 .
PCSat 26 May 20:57:38 21:02:57 53° 311° (NW) 21:08:17 145.827
CUTE 1.7 + AOD 2 26 May 21:07:31 21:09:37 13° 272° (W) 21:11:43 437.475
AO-73 26 May 21:14:59 21:19:08 58° 259° (W) 21:23:27 145.935
Tancredo 1 26 May 21:16:43 21:19:36 38° 147° (SSE) 21:22:30 437.200
AAUSAT CUBESAT 2 26 May 21:20:15 21:23:46 26° 266° (W) 21:27:18 437.432
ZACube-1 26 May 21:29:11 21:33:07 38° 263° (W) 21:37:11 437.345
FO-29 26 May 21:38:18 21:41:49 15° 87° (E) 21:45:30 435.910
DELFI C3 26 May 21:40:11 21:44:08 63° 73° (ENE) 21:48:06 145.870
CUBEBUG 2 26 May 21:44:18 21:45:28 11° 274° (W) 21:46:39 437.445
ISS 26 May 21:45:50 21:49:01 47° 148° (SSE) 21:52:12 437.550
EO-88 26 May 21:46:42 21:50:16 52° 73° (ENE) 21:53:52 145.990 - 145.960
UWE-3 26 May 21:53:47 21:56:02 14° 272° (W) 21:58:19 435.000/436.395/437.385
UNISAT 6 26 May 22:05:31 22:08:25 16° 90° (E) 22:11:19 437.425
PRISM 26 May 22:16:17 22:19:26 21° 93° (E) 22:22:33 437.425
STRAND 1 26 May 22:19:06 22:22:44 20° 302° (WNW) 22:26:23 437.568
M-CUBED/EXP-1 PRIME 26 May 22:21:14 22:24:33 63° 292° (WNW) 22:27:46 437.505
Oscar 11 26 May 22:26:46 22:29:19 15° 271° (W) 22:31:52 .
LO-87 26 May 22:31:10 22:34:06 24° 67° (ENE) 22:37:02 145.935 - 145.965
ESTCUBE 1 26 May 22:38:41 22:42:19 24° 63° (ENE) 22:45:57 437.505/2401.250
SO-50 26 May 22:39:31 22:43:34 32° 117° (ESE) 22:47:35 436.795
PCSat 26 May 22:44:15 22:47:36 16° 333° (NNW) 22:50:59 145.827
Tancredo 1 26 May 22:52:19 22:55:20 52° 346° (NNW) 22:58:21 437.200
TIGRISAT 26 May 23:09:13 23:13:46 59° 101° (E) 23:18:23 435.000
DELFI C3 26 May 23:17:27 23:19:19 13° 271° (W) 23:21:11 145.870
FO-29 26 May 23:21:20 23:27:40 77° 103° (ESE) 23:34:49 435.910
ISS 26 May 23:22:17 23:25:31 51° 347° (NNW) 23:28:46 437.550
EO-88 26 May 23:22:29 23:24:16 13° 270° (W) 23:26:05 145.990 - 145.960
SPROUT 26 May 23:30:33 23:33:43 21° 63° (ENE) 23:36:54 437.525
VELOX 1 26 May 23:35:06 23:38:39 24° 64° (ENE) 23:42:13 145.980
UNISAT 6 26 May 23:40:59 23:45:32 65° 287° (WNW) 23:50:09 437.425
50 SAT 26 May 23:47:11 23:48:53 13° 62° (ENE) 23:50:35 437.505
AIST 2D 26 May 23:50:12 23:53:05 22° 94° (E) 23:55:58 435.315
PRISM 26 May 23:51:03 23:54:52 38° 291° (WNW) 23:58:38 437.425
LO-87 27 May 00:04:30 00:07:29 25° 265° (W) 00:10:29 145.935 - 145.965
UKube-1 27 May 00:04:56 00:07:11 14° 58° (ENE) 00:09:27 .
DX 1 27 May 00:11:11 00:14:31 22° 62° (ENE) 00:17:50 434.975-435.025
EO-79 27 May 00:11:21 00:14:39 22° 93° (E) 00:17:57 145.935-145.965
ESTCUBE 1 27 May 00:14:32 00:18:53 44° 261° (W) 00:23:15 437.505/2401.250
SO-50 27 May 00:19:35 00:23:55 42° 317° (NW) 00:28:15 436.795
Tancredo 1 27 May 00:28:29 00:31:25 40° 5° (N) 00:34:21 437.200
TIGRISAT 27 May 00:46:49 00:50:04 19° 299° (WNW) 00:53:19 435.000
NANOSAT C BR1 27 May 00:56:03 01:00:14 55° 101° (E) 01:04:24 145.865
ISS 27 May 00:59:12 01:02:23 44° 8° (N) 01:05:34 437.550
POLYITAN 1 27 May 01:00:30 01:04:47 68° 102° (ESE) 01:09:03 437.675
YUBILEINY 27 May 01:02:20 01:10:20 43° 86° (E) 01:18:24 435.215
SPROUT 27 May 01:05:17 01:09:21 45° 261° (W) 01:13:27 437.525
DUCHIFAT 1 27 May 01:06:46 01:11:00 65° 102° (ESE) 01:15:12 145.980
FO-29 27 May 01:07:24 01:12:16 25° 301° (WNW) 01:17:34 435.910
QB50P2 27 May 01:09:11 01:13:29 90° 154° (SSE) 01:17:45 145.880/145.840
VELOX 1 27 May 01:10:43 01:14:53 41° 262° (W) 01:19:05 145.980
50 SAT 27 May 01:17:59 01:21:22 51° 260° (W) 01:24:45 437.505
AIST 2D 27 May 01:23:12 01:26:18 28° 291° (WNW) 01:29:22 435.315
BUGSAT 1 27 May 01:25:17 01:29:02 33° 97° (E) 01:32:49 437.445
RS-15 27 May 01:32:58 01:43:02 33° 103° (ESE) 01:53:14 29.354- 29.394
UKube-1 27 May 01:38:20 01:42:39 78° 258° (WSW) 01:46:59 .
DX 1 27 May 01:46:15 01:50:26 46° 261° (W) 01:54:38 434.975-435.025
EO-79 27 May 01:46:34 01:50:35 41° 291° (WNW) 01:54:36 145.935-145.965
Gurwin Techsat 1B 27 May 01:50:06 01:53:18 16° 88° (E) 01:56:31 435.225
SO-50 27 May 02:03:15 02:05:33 14° 339° (NNW) 02:07:51 436.795
Tancredo 1 27 May 02:04:17 02:07:22 81° 205° (SSW) 02:10:25 437.200
Oscar 19 27 May 02:11:25 02:16:13 37° 97° (E) 02:20:57 437.125/150
ITUPSAT 1 27 May 02:14:42 02:18:45 28° 63° (ENE) 02:22:49 437.325
PCSat 27 May 02:15:59 02:19:22 16° 27° (NNE) 02:22:43 145.827
MOZHAYETS 4 27 May 02:30:38 02:34:10 22° 62° (ENE) 02:37:44
NANOSAT C BR1 27 May 02:32:42 02:35:33 18° 299° (WNW) 02:38:26 145.865
ISS 27 May 02:35:44 02:39:01 71° 208° (SSW) 02:42:17 437.550
POLYITAN 1 27 May 02:37:33 02:40:04 15° 300° (WNW) 02:42:34 437.675
DUCHIFAT 1 27 May 02:43:38 02:46:11 16° 300° (WNW) 02:48:44 145.980
QB50P2 27 May 02:46:56 02:48:36 12° 303° (WNW) 02:50:16 145.880/145.840
BEESAT 27 May 02:47:28 02:52:07 54° 70° (ENE) 02:56:47 436.000
YUBILEINY 27 May 02:58:37 03:07:02 50° 289° (WNW) 03:15:33 435.215
BUGSAT 1 27 May 03:00:51 03:04:18 26° 294° (WNW) 03:07:47 437.445
ITAMSAT 1 27 May 03:14:40 03:17:08 13° 87° (E) 03:19:36 435.822/435.867
CUBESAT XI-V 27 May 03:18:01 03:20:31 14° 57° (ENE) 03:23:02 437.345
O/OREOS (USA 219) 27 May 03:24:09 03:26:30 14° 98° (E) 03:28:50 437.305
KKS-1 27 May 03:24:52 03:27:06 14° 57° (ENE) 03:29:20 437.445
Gurwin Techsat 1B 27 May 03:28:34 03:33:54 80° 286° (WNW) 03:39:13 435.225
Tancredo 1 27 May 03:40:52 03:42:43 15° 223° (SW) 03:44:33 437.200
RS-15 27 May 03:41:57 03:54:12 86° 307° (NW) 04:06:41 29.354- 29.394
Oscar 19 27 May 03:50:51 03:55:29 34° 296° (WNW) 04:00:04 437.125/150
ITUPSAT 1 27 May 03:51:55 03:56:25 41° 262° (W) 04:00:58 437.325
STARS 27 May 03:55:55 03:57:47 13° 57° (ENE) 03:59:38 437.465
PCSat 27 May 03:58:41 04:04:02 53° 50° (NE) 04:09:20 145.827
MOZHAYETS 4 27 May 04:06:33 04:11:01 50° 261° (W) 04:15:33
ISS 27 May 04:13:18 04:15:01 14° 225° (SW) 04:16:45 437.550
AO-85 27 May 04:18:51 04:21:21 16° 113° (ESE) 04:23:48 145.980
AO-7 27 May 04:23:29 04:31:31 48° 100° (E) 04:39:31 .
BEESAT 27 May 04:26:43 04:30:13 20° 268° (W) 04:33:45 436.000
ITAMSAT 1 27 May 04:52:06 04:57:21 89° 105° (ESE) 05:02:35 435.822/435.867
CUBESAT XI-V 27 May 04:52:30 04:57:14 87° 257° (WSW) 05:01:58 437.345
KKS-1 27 May 04:58:37 05:03:03 83° 258° (WSW) 05:07:29 437.445
O/OREOS (USA 219) 27 May 05:00:40 05:05:16 76° 295° (WNW) 05:09:53 437.305
YUBILEINY 27 May 05:03:01 05:06:32 13° 315° (NW) 05:10:05 435.215
Gurwin Techsat 1B 27 May 05:10:11 05:13:02 15° 306° (NW) 05:15:52 435.225
BEESAT 3 27 May 05:20:02 05:23:03 21° 114° (ESE) 05:26:07 437.485
SO-50 27 May 05:27:06 05:30:20 19° 29° (NNE) 05:33:32 436.795
STARS 27 May 05:29:06 05:33:27 90° 280° (W) 05:37:51 437.465
PCSat 27 May 05:42:32 05:47:10 29° 249° (WSW) 05:51:47 145.827
RS-15 27 May 05:57:02 06:08:34 43° 337° (NNW) 06:20:07 29.354- 29.394
AO-85 27 May 05:57:15 06:01:19 64° 310° (NW) 06:05:16 145.980
XW-2D 27 May 06:08:55 06:10:16 11° 88° (E) 06:11:36 145.860 - 145.880
XW-2B 27 May 06:16:19 06:18:18 14° 89° (E) 06:20:16 145.730 - 145.750
AO-7 27 May 06:16:26 06:24:18 48° 301° (WNW) 06:32:11 .
STRAND 1 27 May 06:20:46 06:24:38 22° 60° (ENE) 06:28:32 437.568
NUDT-PHONESAT 27 May 06:27:05 06:29:05 14° 90° (E) 06:31:06 437.300
XW-2F 27 May 06:28:13 06:30:52 18° 91° (E) 06:33:30 145.980 - 146.000
XW-2C 27 May 06:29:19 06:32:08 19° 92° (E) 06:34:55 145.795 - 145.815
ITAMSAT 1 27 May 06:32:57 06:36:07 16° 305° (NW) 06:39:17 435.822/435.867
CUBESAT XI-V 27 May 06:33:53 06:35:18 11° 274° (W) 06:36:44 437.345
KAITUO 1B 27 May 06:35:27 06:38:03 17° 91° (E) 06:40:38 145.475/437.950
BEESAT 2 27 May 06:36:48 06:40:37 46° 121° (ESE) 06:44:31 435.950
O/OREOS (USA 219) 27 May 06:43:09 06:45:31 14° 318° (NW) 06:47:53 437.305
CUTE-I 27 May 06:48:56 06:53:37 30° 95° (E) 06:58:16 437.470
BEESAT 3 27 May 06:56:28 07:00:21 49° 313° (NW) 07:04:17 437.485
DOVE 4 27 May 06:57:02 07:01:11 67° 102° (ESE) 07:05:24 437.250
SO-50 27 May 07:06:59 07:11:31 77° 50° (NE) 07:16:03 436.795
LilacSat-2 27 May 07:07:01 07:10:50 51° 100° (E) 07:14:37 437.200
STARS 27 May 07:09:50 07:10:28 10° 273° (W) 07:11:04 437.465
M-CUBED/EXP-1 PRIME 27 May 07:35:52 07:39:27 29° 62° (ENE) 07:42:50 437.505
HO-68 27 May 07:37:57 07:43:54 27° 92° (E) 07:49:47 435.675
AO-85 27 May 07:40:18 07:42:27 14° 332° (NNW) 07:44:36 145.980
XW-2D 27 May 07:41:03 07:44:54 66° 286° (WNW) 07:48:42 145.860 - 145.880
XW-2B 27 May 07:49:02 07:52:50 56° 288° (WNW) 07:56:36 145.730 - 145.750
CUBEBUG 2 27 May 07:52:12 07:54:43 14° 89° (E) 07:57:16 437.445
STRAND 1 27 May 07:58:24 08:03:25 60° 259° (WSW) 08:08:30 437.568
NUDT-PHONESAT 27 May 07:59:37 08:03:19 52° 288° (WNW) 08:06:59 437.300
SEEDS 27 May 07:59:52 08:02:58 20° 91° (E) 08:06:02 437.485
XW-2F 27 May 08:01:33 08:05:13 42° 289° (WNW) 08:08:50 145.980 - 146.000
UWE-3 27 May 08:02:51 08:04:19 11° 86° (E) 08:05:46 435.000/436.395/437.385
XW-2C 27 May 08:02:52 08:06:29 39° 290° (WNW) 08:10:05 145.795 - 145.815
KAITUO 1B 27 May 08:08:39 08:12:16 41° 289° (WNW) 08:15:50 145.475/437.950
AO-7 27 May 08:10:51 08:15:07 15° 325° (NW) 08:19:24 .
RS-15 27 May 08:13:51 08:25:05 37° 11° (N) 08:36:03 29.354- 29.394
NO-84 27 May 08:14:59 08:17:35 16° 127° (SE) 08:20:10 435.350 FM
BEESAT 2 27 May 08:15:08 08:18:35 26° 321° (NW) 08:22:03 435.950
XW-2A 27 May 08:24:59 08:28:19 44° 99° (E) 08:31:38 145.665 - 145.685
CUTE-I 27 May 08:28:45 08:33:48 44° 293° (WNW) 08:38:50 437.470
DOVE 4 27 May 08:36:10 08:38:26 14° 300° (WNW) 08:40:42 437.250
BEESAT 3 27 May 08:37:04 08:38:53 13° 335° (NNW) 08:40:43 437.485
TIGRISAT 27 May 08:38:44 08:39:31 10° 55° (NE) 08:40:18 435.000
LilacSat-2 27 May 08:42:17 08:44:44 16° 298° (WNW) 08:47:12 437.200
CUTE 1.7 + AOD 2 27 May 08:46:02 08:50:20 87° 105° (ESE) 08:54:35 437.475
SO-50 27 May 08:48:43 08:51:25 16° 249° (WSW) 08:54:06 436.795
